[[{"header":{"parameterUnit":"m.s-1","parameterCategory":1,"la1":30.2991,"la2":30.254,"lo1":-89.0895,"lo2":-89.0444,"dy":0.0017,"dx":0.0017,"nx":28,"ny":28,"refTime":"2023-10-15T21:00:00:Z","depth":0,"parameterNumber":2,"parameterNumberName":"U-component_of_WINDS"},"data":[0,0,0,0,0,0,0,0,0,0,0,0,0,0,0,0,0,0,0,0,0,0,0,0,0,0,0,0,0,0,0,0,0,0,0,0,0,0,0,0,0,0,0,0,0,0,0,0,0,0,0,0,0,0,0,0,0,0,2.5533,2.5533,0,2.5506,2.5505,2.5505,2.5464,2.5463,2.5462,2.5462,2.5432,2.5432,2.5432,0,0,0,0,0,0,0,0,0,0,0,0,0,2.555,2.555,2.5533,2.5533,2.5533,2.5506,2.5505,2.5505,2.5464,2.5463,2.5462,2.5461,2.5432,2.5432,2.5432,0,0,0,0,0,0,0,0,0,0,0,0,0,2.5534,2.555,2.5533,2.5509,2.5506,2.5506,2.5505,2.5505,2.5464,2.5463,2.5462,2.5461,2.5432,2.5432,2.5432,2.5452,0,0,2.5431,2.5431,0,0,0,0,0,0,0,0,2.5535,2.5534,2.5513,2.551,2.5508,2.5487,2.55,2.5487,2.5464,2.548,2.5462,2.546,2.5451,2.5449,2.5446,2.5451,2.545,2.5431,2.5431,2.5431,2.5431,0,0,0,0,0,0,0,2.5536,2.5535,2.5522,2.5512,2.5509,2.5499,2.5496,2.5498,2.5472,2.5479,2.5476,2.5473,2.5449,2.5447,2.5445,2.5449,2.5431,2.5431,2.5431,2.5431,2.547,2.5471,0,0,0,0,0,0,2.5541,2.5536,2.5523,2.5521,2.5519,2.55,2.5496,2.5495,2.5472,2.5467,2.5474,2.5471,2.5447,2.5446,2.5444,2.5467,2.5431,2.5431,2.5431,2.5469,2.547,2.5471,0,0,0,0,0,0,2.5542,2.554,2.5524,2.5528,2.5525,2.5501,2.55,2.5495,2.5492,2.5468,2.5463,2.5476,2.5447,2.5444,2.5451,2.5465,2.5431,2.5431,2.5467,2.5469,2.547,2.5512,0,0,0,0,0,0,2.5542,2.5541,2.5549,2.5528,2.5525,2.5532,2.55,2.5495,2.5492,2.5488,2.5469,2.5464,2.5446,2.5451,2.5451,2.5464,2.543,2.5466,2.5468,2.547,2.5509,2.5515,2.552,0,0,0,0,0,2.5543,2.5561,2.5549,2.5548,2.5534,2.5532,2.553,2.5509,2.5493,2.5501,2.5486,2.5465,2.5464,2.5452,2.5451,2.5465,2.5465,2.5467,2.547,2.5507,2.5514,2.552,0,0,0,0,0,0,2.5583,2.5558,2.5544,2.5556,2.5547,2.5525,2.5534,2.5517,2.5511,2.5508,2.5481,2.5477,2.5486,2.5476,2.5464,2.5484,2.5461,2.5464,2.549,2.5496,2.5502,2.5503,2.543,0,0,0,0,0,2.5593,2.5594,2.5572,2.5585,2.5581,2.5559,2.5557,2.5541,2.553,2.5526,2.5511,2.5501,2.5498,2.5497,2.5493,2.5508,2.5503,2.5517,2.5523,2.5527,2.5529,2.5536,2.5542,2.5479,2.5479,2.5479,0,0,2.5614,2.5601,2.5603,2.5593,2.5583,2.5585,2.5555,2.5558,2.5559,2.5526,2.5531,2.552,2.5507,2.5518,2.5522,2.551,2.5546,2.553,2.5534,2.5534,2.554,2.5546,2.5551,2.5481,2.5481,2.5481,0,0,2.5653,2.5643,2.5652,2.5644,2.5631,2.5616,2.5619,2.56,2.5592,2.5597,2.5572,2.5573,2.5569,2.556,2.5556,2.5593,2.5573,2.5592,2.5619,2.5627,2.5632,2.5636,2.5649,2.5654,2.5595,2.5595,2.5595,0,2.568,2.5682,2.5659,2.5664,2.566,2.5632,2.5641,2.5634,2.562,2.5618,2.5605,2.56,2.5589,2.5597,2.5607,2.5604,2.5605,2.5594,2.5633,2.5637,2.5641,2.5652,2.5657,2.5597,2.5597,2.5597,2.5596,0,2.5716,2.5718,2.5727,2.5715,2.5712,2.5719,2.5698,2.5698,2.5683,2.5669,2.5675,2.5661,2.5654,2.5655,2.564,2.5662,2.5655,2.5638,2.5614,2.5649,2.566,2.5664,2.56,2.56,2.5599,2.5598,0,0,2.5778,2.5754,2.5758,2.5752,2.5736,2.5737,2.5743,2.5736,2.5737,2.5729,2.5733,2.5731,2.5715,2.571,2.5694,2.5701,2.573,2.5683,2.5682,2.5691,2.5753,2.5765,2.5771,2.5718,2.5719,2.572,2.5754,0,2.5812,2.5821,2.5802,2.5815,2.5816,2.579,2.5795,2.5785,2.5774,2.5773,2.5759,2.5758,2.5738,2.5734,2.574,2.5726,2.5742,2.5723,2.5721,2.5721,2.5724,2.5776,2.5789,2.5822,2.5758,2.5759,2.5759,0,2.5854,2.5848,2.5862,2.5846,2.5845,2.585,2.5843,2.5843,2.5832,2.5823,2.5818,2.58,2.5804,2.5783,2.5788,2.5775,2.5774,2.5767,2.5767,2.5765,2.5741,2.5775,2.5832,2.5837,2.5766,2.5765,2.5765,0,2.5897,2.5893,2.59,2.5897,2.5878,2.5882,2.5874,2.5862,2.586,2.5854,2.5852,2.5847,2.5844,2.584,2.5821,2.5807,2.5829,2.5805,2.5821,2.5821,2.5825,2.5825,2.5882,2.5826,2.5826,2.5826,2.5826,0,2.5937,2.5946,2.592,2.5924,2.5934,2.5912,2.5922,2.5912,2.5901,2.5903,2.5881,2.5883,2.5858,2.5857,2.5843,2.5849,2.5848,2.5841,2.5836,2.5842,2.5843,2.5839,2.5836,2.5827,2.5827,2.5827,2.5826,0,2.5986,2.5968,2.5975,2.5957,2.5953,2.5961,2.5945,2.5949,2.5936,2.5939,2.5938,2.5918,2.5916,2.5897,2.5891,2.5881,2.5894,2.5886,2.5897,2.5894,2.591,2.5909,2.5966,2.5972,2.5914,2.5914,2.5915,0,2.6012,2.6019,2.6002,2.6002,2.5995,2.5996,2.5993,2.5973,2.5971,2.596,2.5965,2.5961,2.5957,2.5956,2.5941,2.5936,2.5927,2.5948,2.5926,2.5932,2.5926,2.5926,2.5926,2.5952,2.5952,2.5953,2.5954,0,2.6061,2.6052,2.605,2.6045,2.6043,2.6038,2.6032,2.6033,2.601,2.601,2.6008,2.6005,2.6,2.5997,2.599,2.5981,2.5964,2.5961,2.5964,2.5969,2.5975,2.5971,2.5909,2.5959,2.5959,2.5958,2.5958,2.5958,2.6098,2.6103,2.6092,2.609,2.6084,2.6078,2.6081,2.6069,2.6067,2.6061,2.6049,2.605,2.6039,2.6028,2.6021,2.6021,2.601,2.6015,2.6016,2.6017,2.602,2.5977,2.602,2.602,2.602,2.6019,2.6019,0,2.6145,2.6137,2.6136,2.6128,2.6127,2.6111,2.6104,2.6104,2.6104,2.6096,2.6093,2.6092,2.6089,2.6074,2.6069,2.6072,2.6064,2.6071,2.607,2.6069,2.603,2.6028,2.6078,2.6078,2.6078,2.6078,2.6078,2.6078,2.6169,2.6176,2.6166,2.6169,2.6161,2.6162,2.6159,2.6154,2.6147,2.6146,2.6144,2.6135,2.6124,2.6118,2.6115,2.6111,2.611,2.612,2.6113,2.6077,2.6071,2.6066,2.6063,2.612,2.612,2.6151,2.6151,2.6151]},{"header":{"parameterUnit":"m.s-1","parameterCategory":1,"la1":30.2991,"la2":30.254,"lo1":-89.0895,"lo2":-89.0444,"dy":0.0017,"dx":0.0017,"nx":28,"ny":28,"refTime":"2023-10-15T21:00:00:Z","depth":0,"parameterNumber":3,"parameterNumberName":"V-component_of_WINDS"},"data":[0,0,0,0,0,0,0,0,0,0,0,0,0,0,0,0,0,0,0,0,0,0,0,0,0,0,0,0,0,0,0,0,0,0,0,0,0,0,0,0,0,0,0,0,0,0,0,0,0,0,0,0,0,0,0,0,0,0,-4.1083,-4.1084,0,-4.1207,-4.1209,-4.121,-4.1216,-4.1214,-4.1213,-4.1212,-4.1337,-4.1341,-4.1346,0,0,0,0,0,0,0,0,0,0,0,0,0,-4.0851,-4.0855,-4.1083,-4.1084,-4.1086,-4.1207,-4.1209,-4.121,-4.1216,-4.1214,-4.1213,-4.1211,-4.1335,-4.1341,-4.1346,0,0,0,0,0,0,0,0,0,0,0,0,0,-4.0961,-4.0856,-4.1082,-4.1103,-4.1107,-4.1207,-4.1209,-4.1211,-4.1217,-4.1214,-4.1212,-4.121,-4.1334,-4.134,-4.1347,-4.1434,0,0,-4.1369,-4.1372,0,0,0,0,0,0,0,0,-4.0955,-4.0969,-4.1099,-4.1102,-4.1106,-4.1194,-4.1173,-4.1286,-4.1217,-4.1175,-4.1212,-4.1209,-4.1291,-4.1301,-4.1329,-4.144,-4.1445,-4.1369,-4.1374,-4.1377,-4.1379,0,0,0,0,0,0,0,-4.0947,-4.0964,-4.1132,-4.1101,-4.1105,-4.1107,-4.112,-4.1194,-4.1243,-4.1178,-4.1179,-4.1194,-4.1292,-4.1323,-4.1332,-4.1447,-4.1369,-4.1375,-4.138,-4.1382,-4.164,-4.1643,0,0,0,0,0,0,-4.0935,-4.0958,-4.1128,-4.1136,-4.1023,-4.1113,-4.1128,-4.1168,-4.1243,-4.1252,-4.1195,-4.1194,-4.1312,-4.1324,-4.1337,-4.1447,-4.1377,-4.1383,-4.1387,-4.1638,-4.1641,-4.1644,0,0,0,0,0,0,-4.093,-4.0951,-4.1123,-4.1047,-4.1069,-4.1119,-4.1164,-4.1171,-4.1202,-4.1256,-4.1264,-4.1217,-4.131,-4.1327,-4.1411,-4.1451,-4.1386,-4.1393,-4.1635,-4.1639,-4.1642,-4.1666,0,0,0,0,0,0,-4.0924,-4.0949,-4.0982,-4.1048,-4.1073,-4.1195,-4.1167,-4.1175,-4.1214,-4.1213,-4.1279,-4.1287,-4.131,-4.1401,-4.1418,-4.146,-4.1398,-4.1631,-4.1636,-4.1641,-4.1662,-4.167,-4.1677,0,0,0,0,0,-4.0915,-4.0982,-4.0984,-4.1004,-4.1116,-4.1197,-4.1212,-4.1237,-4.1217,-4.1252,-4.1287,-4.1285,-4.1444,-4.1409,-4.1429,-4.1473,-4.1629,-4.1635,-4.1641,-4.1658,-4.1669,-4.1677,0,0,0,0,0,0,-4.0918,-4.0991,-4.0993,-4.1083,-4.1134,-4.1198,-4.1242,-4.1247,-4.1304,-4.13,-4.1328,-4.1343,-4.1428,-4.1458,-4.1419,-4.1564,-4.1534,-4.1544,-4.1541,-4.1551,-4.1558,-4.155,-4.1404,0,0,0,0,0,-4.0929,-4.099,-4.105,-4.1124,-4.1149,-4.1191,-4.1228,-4.1243,-4.1297,-4.1318,-4.1359,-4.1411,-4.1474,-4.1513,-4.1573,-4.1666,-4.1682,-4.1706,-4.1714,-4.172,-4.1729,-4.1785,-4.1797,-4.1663,-4.1663,-4.1663,0,0,-4.0953,-4.1,-4.1036,-4.1125,-4.1167,-4.123,-4.1209,-4.1275,-4.1323,-4.1328,-4.1412,-4.1444,-4.1504,-4.1594,-4.1635,-4.1622,-4.177,-4.1728,-4.1732,-4.1738,-4.1792,-4.1805,-4.1816,-4.1667,-4.1666,-4.1666,0,0,-4.1028,-4.1069,-4.1137,-4.118,-4.1243,-4.1271,-4.1288,-4.1352,-4.1374,-4.1459,-4.1465,-4.1522,-4.1626,-4.167,-4.1706,-4.1803,-4.1804,-4.1821,-4.1862,-4.1916,-4.1927,-4.1936,-4.1974,-4.1987,-4.1829,-4.1829,-4.1829,0,-4.1049,-4.1144,-4.1171,-4.1239,-4.1279,-4.1288,-4.1359,-4.1398,-4.1478,-4.1506,-4.1489,-4.1625,-4.1665,-4.1768,-4.1792,-4.1819,-4.1841,-4.1814,-4.1923,-4.1933,-4.1942,-4.1979,-4.1992,-4.1831,-4.1831,-4.1831,-4.1831,0,-4.1169,-4.1235,-4.1282,-4.1362,-4.1407,-4.1475,-4.1513,-4.1556,-4.1568,-4.1598,-4.1686,-4.1735,-4.1807,-4.1832,-4.1843,-4.1938,-4.1928,-4.1917,-4.1888,-4.1956,-4.1991,-4.2005,-4.1834,-4.1833,-4.1833,-4.1832,0,0,-4.1249,-4.1344,-4.1361,-4.1399,-4.1472,-4.1523,-4.1593,-4.1665,-4.1703,-4.1757,-4.1819,-4.1909,-4.1901,-4.1942,-4.1958,-4.2005,-4.2083,-4.1989,-4.1991,-4.2008,-4.2194,-4.2204,-4.2219,-4.2084,-4.2087,-4.2089,-4.219,0,-4.1335,-4.146,-4.1488,-4.1596,-4.166,-4.1671,-4.1732,-4.1784,-4.1814,-4.1873,-4.1906,-4.1972,-4.1954,-4.1979,-4.2026,-4.2063,-4.2121,-4.2056,-4.2143,-4.2146,-4.213,-4.2237,-4.2247,-4.234,-4.2204,-4.2206,-4.2208,0,-4.1452,-4.1513,-4.1628,-4.1696,-4.1723,-4.1778,-4.1848,-4.1903,-4.1963,-4.1982,-4.203,-4.2043,-4.2117,-4.2084,-4.2189,-4.2144,-4.2181,-4.2205,-4.2209,-4.222,-4.2182,-4.2254,-4.237,-4.2385,-4.2229,-4.2227,-4.2225,0,-4.1503,-4.1613,-4.1698,-4.1729,-4.1809,-4.1848,-4.1883,-4.1941,-4.1984,-4.2045,-4.2073,-4.2141,-4.2179,-4.2232,-4.2264,-4.2236,-4.2367,-4.2335,-4.2387,-4.2387,-4.2416,-4.2414,-4.2543,-4.2435,-4.2435,-4.2435,-4.2434,0,-4.1598,-4.1669,-4.1722,-4.1774,-4.1855,-4.1886,-4.1966,-4.2001,-4.2053,-4.2113,-4.2125,-4.2181,-4.2218,-4.228,-4.2305,-4.239,-4.2406,-4.2425,-4.2431,-4.2426,-4.2424,-4.2452,-4.2447,-4.2438,-4.2437,-4.2437,-4.2436,0,-4.1669,-4.1707,-4.1801,-4.187,-4.189,-4.1947,-4.2006,-4.2058,-4.209,-4.2166,-4.2186,-4.2235,-4.2309,-4.2346,-4.2436,-4.2453,-4.2551,-4.2551,-4.2532,-4.2535,-4.2586,-4.2582,-4.274,-4.2763,-4.2637,-4.2638,-4.2639,0,-4.1728,-4.1784,-4.186,-4.1902,-4.1939,-4.2006,-4.205,-4.2083,-4.213,-4.2204,-4.2248,-4.2322,-4.2384,-4.2502,-4.2547,-4.2617,-4.2621,-4.2672,-4.2632,-4.2626,-4.2627,-4.2624,-4.2632,-4.268,-4.2681,-4.2682,-4.2683,0,-4.1831,-4.1848,-4.1912,-4.1984,-4.2038,-4.2096,-4.2152,-4.2186,-4.2229,-4.228,-4.2357,-4.2405,-4.25,-4.2575,-4.265,-4.2686,-4.2693,-4.2695,-4.2711,-4.2707,-4.2695,-4.2706,-4.2554,-4.2691,-4.269,-4.269,-4.2689,-4.2689,-4.19,-4.1952,-4.2015,-4.2087,-4.2134,-4.2188,-4.2242,-4.2281,-4.2346,-4.2427,-4.2442,-4.2525,-4.2586,-4.2687,-4.2727,-4.2792,-4.2781,-4.2804,-4.281,-4.2816,-4.2821,-4.2683,-4.2805,-4.2805,-4.2805,-4.2805,-4.2805,0,-4.2006,-4.2048,-4.2114,-4.2195,-4.2253,-4.2254,-4.2319,-4.2367,-4.244,-4.2497,-4.2558,-4.2649,-4.2722,-4.2774,-4.2849,-4.2892,-4.2897,-4.2911,-4.291,-4.2919,-4.2825,-4.2805,-4.2906,-4.2906,-4.2906,-4.2906,-4.2906,-4.2906,-4.2069,-4.2157,-4.2182,-4.2296,-4.2337,-4.2419,-4.2456,-4.2507,-4.2553,-4.2654,-4.2716,-4.2749,-4.2805,-4.2885,-4.2954,-4.2967,-4.2996,-4.3011,-4.3024,-4.2936,-4.2925,-4.2915,-4.2897,-4.3016,-4.3016,-4.3114,-4.3115,-4.3115]}]]